Weather in Aleksandrovka

Russia / Novosibirsk Oblast     54°26′17″N   84°21′57″E
temp.,
°C
wind,
m/s
gust,
m/s
humid.,
%
clouds,
%
prec.,
mm/h
press.,
hPa
HPBL,
m
2 march, tue
tue201:00−6nnw1297100 2.4 100947
04:00−8nw2297100 0.4 101038
07:00−10w2397100 0.9 1012136
10:00−11w239596 0.3 1014196
13:00−9w349298 0.4 1015344
16:00−9w3493100 0.1 1015418
19:00−12wnw229699 0.3 101642
22:00−16nw119874 0.1 101720
3 march, wed
wed301:00−17nw119974 0.1 101720
04:00−18wsw019892 0.0 101720
07:00−16wsw119788 0.1 101920
10:00−14wsw129490 0.1 1020200
13:00−11sw249194 0.2 1021416
16:00−10sw3591100 0.1 1021529
19:00−12ssw3596100 0.2 1022156
22:00−14ssw3797100 0.1 1024252
4 march, thu
thu401:00−15s41098100 0.1 1025276
04:00−15s41197100 0.1 1024354
07:00−15s51295100 0.1 1024405
10:00−12s61392100 0.1 1023564
13:00−8s71386100 0.1 1022719
16:00−5ssw71486100 0.0 1021795
19:00−6ssw71593100 0.4 1020730
22:00−6ssw61586100 0.2 1019625
5 march, fri
fri501:00−7ssw61587100 0.3 1018547
04:00−8s51486100 0.0 1017485
07:00−9s5138593 0.0 1016411
10:00−8s61579100 0.0 1014566
13:00−5s61395100 1.8 1013725
16:00−4sw61095100 1.8 1014739
19:00−4wsw61294100 2.5 1017738
22:00−7sw6149198 0.1 1021562
6 march, sat
sat601:00−9ssw7168997 0.1 1023683
04:00−8ssw71787100 0.0 1021903
07:00−8sw81788100 0.1 1021897
10:00−8sw81590100 0.1 1021894
13:00−7sw81589100 0.3 1021875
16:00−6sw81394100 1.1 1020908
19:00−6sw71494100 2.4 1021865
22:00−7sw71494100 1.3 1021769